Year,Month,Day,Hour,Minute,Value (Times are PST for temperature in C)
2013,07,14,00,00,13.80
2013,07,14,00,01,13.80
2013,07,14,00,02,13.80
2013,07,14,00,03,13.80
2013,07,14,00,04,13.80
2013,07,14,00,05,13.80
2013,07,14,00,06,13.70
2013,07,14,00,07,13.70
2013,07,14,00,08,13.70
2013,07,14,00,09,13.70
2013,07,14,00,10,13.70
2013,07,14,00,11,13.70
2013,07,14,00,12,13.70
2013,07,14,00,13,13.60
2013,07,14,00,14,13.60
2013,07,14,00,15,13.60
2013,07,14,00,16,13.60
2013,07,14,00,17,13.60
2013,07,14,00,18,13.60
2013,07,14,00,19,13.50
2013,07,14,00,20,13.50
2013,07,14,00,21,13.50
2013,07,14,00,22,13.40
2013,07,14,00,23,13.40
2013,07,14,00,24,13.40
2013,07,14,00,25,13.40
2013,07,14,00,26,13.30
2013,07,14,00,27,13.30
2013,07,14,00,28,13.30
2013,07,14,00,29,13.30
2013,07,14,00,30,13.30
2013,07,14,00,31,13.20
2013,07,14,00,32,13.20
2013,07,14,00,33,13.20
2013,07,14,00,34,13.20
2013,07,14,00,35,13.20
2013,07,14,00,36,13.20
2013,07,14,00,37,13.10
2013,07,14,00,38,13.10
2013,07,14,00,39,13.10
2013,07,14,00,40,13.10
2013,07,14,00,41,13.10
2013,07,14,00,42,13.10
2013,07,14,00,43,13.10
2013,07,14,00,44,13.10
2013,07,14,00,45,13.10
2013,07,14,00,46,13.10
2013,07,14,00,47,13.10
2013,07,14,00,48,13.10
2013,07,14,00,49,13.00
2013,07,14,00,50,13.00
2013,07,14,00,51,13.00
2013,07,14,00,52,13.00
2013,07,14,00,53,13.00
2013,07,14,00,54,13.00
2013,07,14,00,55,13.00
2013,07,14,00,56,13.00
2013,07,14,00,57,12.90
2013,07,14,00,58,12.90
2013,07,14,00,59,12.90
2013,07,14,01,00,12.90
2013,07,14,01,01,12.90
2013,07,14,01,02,12.90
2013,07,14,01,03,12.90
2013,07,14,01,04,12.90
2013,07,14,01,05,12.90
2013,07,14,01,06,12.90
2013,07,14,01,07,12.80
2013,07,14,01,08,12.80
2013,07,14,01,09,12.80
2013,07,14,01,10,12.80
2013,07,14,01,11,12.80
2013,07,14,01,12,12.80
2013,07,14,01,13,12.80
2013,07,14,01,14,12.80
2013,07,14,01,15,12.80
2013,07,14,01,16,12.80
2013,07,14,01,17,12.80
2013,07,14,01,18,12.80
2013,07,14,01,19,12.70
2013,07,14,01,20,12.70
2013,07,14,01,21,12.70
2013,07,14,01,22,12.70
2013,07,14,01,23,12.70
2013,07,14,01,24,12.70
2013,07,14,01,25,12.70
2013,07,14,01,26,12.70
2013,07,14,01,27,12.70
2013,07,14,01,28,12.60
2013,07,14,01,29,12.60
2013,07,14,01,30,12.60
2013,07,14,01,31,12.60
2013,07,14,01,32,12.60
2013,07,14,01,33,12.60
2013,07,14,01,34,12.60
2013,07,14,01,35,12.60
2013,07,14,01,36,12.50
2013,07,14,01,37,12.50
2013,07,14,01,38,12.40
2013,07,14,01,39,12.40
2013,07,14,01,40,12.40
2013,07,14,01,41,12.40
2013,07,14,01,42,12.40
2013,07,14,01,43,12.40
2013,07,14,01,44,12.40
2013,07,14,01,45,12.30
2013,07,14,01,46,12.40
2013,07,14,01,47,12.40
2013,07,14,01,48,12.30
2013,07,14,01,49,12.40
2013,07,14,01,50,12.40
2013,07,14,01,51,12.30
2013,07,14,01,52,12.30
2013,07,14,01,53,12.30
2013,07,14,01,54,12.30
2013,07,14,01,55,12.30
2013,07,14,01,56,12.30
2013,07,14,01,57,12.30
2013,07,14,01,58,12.30
2013,07,14,01,59,12.30
2013,07,14,02,00,12.30
2013,07,14,02,01,12.30
2013,07,14,02,02,12.30
2013,07,14,02,03,12.30
2013,07,14,02,04,12.30
2013,07,14,02,05,12.30
2013,07,14,02,06,12.30
2013,07,14,02,07,12.30
2013,07,14,02,08,12.30
2013,07,14,02,09,12.30
2013,07,14,02,10,12.30
2013,07,14,02,11,12.30
2013,07,14,02,12,12.30
2013,07,14,02,13,12.30
2013,07,14,02,14,12.30
2013,07,14,02,15,12.30
2013,07,14,02,16,12.20
2013,07,14,02,17,12.20
2013,07,14,02,18,12.20
2013,07,14,02,19,12.20
2013,07,14,02,20,12.20
2013,07,14,02,21,12.20
2013,07,14,02,22,12.20
2013,07,14,02,23,12.10
2013,07,14,02,24,12.10
2013,07,14,02,25,12.10
2013,07,14,02,26,12.10
2013,07,14,02,27,12.10
2013,07,14,02,28,12.00
2013,07,14,02,29,12.00
2013,07,14,02,30,12.00
2013,07,14,02,31,11.90
2013,07,14,02,32,11.90
2013,07,14,02,33,11.90
2013,07,14,02,34,11.90
2013,07,14,02,35,11.90
2013,07,14,02,36,11.90
2013,07,14,02,37,11.90
2013,07,14,02,38,11.90
2013,07,14,02,39,11.80
2013,07,14,02,40,11.80
2013,07,14,02,41,11.80
2013,07,14,02,42,11.80
2013,07,14,02,43,11.80
2013,07,14,02,44,11.80
2013,07,14,02,45,11.80
2013,07,14,02,46,11.70
2013,07,14,02,47,11.70
2013,07,14,02,48,11.70
2013,07,14,02,49,11.70
2013,07,14,02,50,11.70
2013,07,14,02,51,11.70
2013,07,14,02,52,11.70
2013,07,14,02,53,11.70
2013,07,14,02,54,11.70
2013,07,14,02,55,11.70
2013,07,14,02,56,11.70
2013,07,14,02,57,11.60
2013,07,14,02,58,11.60
2013,07,14,02,59,11.60
2013,07,14,03,00,11.60
2013,07,14,03,01,11.60
2013,07,14,03,02,11.60
2013,07,14,03,03,11.60
2013,07,14,03,04,11.60
2013,07,14,03,05,11.60
2013,07,14,03,06,11.60
2013,07,14,03,07,11.60
2013,07,14,03,08,11.60
2013,07,14,03,09,11.60
2013,07,14,03,10,11.60
2013,07,14,03,11,11.60
2013,07,14,03,12,11.60
2013,07,14,03,13,11.60
2013,07,14,03,14,11.60
2013,07,14,03,15,11.60
2013,07,14,03,16,11.60
2013,07,14,03,17,11.60
2013,07,14,03,18,11.60
2013,07,14,03,19,11.60
2013,07,14,03,20,11.60
2013,07,14,03,21,11.50
2013,07,14,03,22,11.50
2013,07,14,03,23,11.50
2013,07,14,03,24,11.50
2013,07,14,03,25,11.50
2013,07,14,03,26,11.50
2013,07,14,03,27,11.40
2013,07,14,03,28,11.40
2013,07,14,03,29,11.40
2013,07,14,03,30,11.40
2013,07,14,03,31,11.40
2013,07,14,03,32,11.40
2013,07,14,03,33,11.40
2013,07,14,03,34,11.30
2013,07,14,03,35,11.30
2013,07,14,03,36,11.30
2013,07,14,03,37,11.30
2013,07,14,03,38,11.30
2013,07,14,03,39,11.30
2013,07,14,03,40,11.30
2013,07,14,03,41,11.30
2013,07,14,03,42,11.30
2013,07,14,03,43,11.30
2013,07,14,03,44,11.20
2013,07,14,03,45,11.20
2013,07,14,03,46,11.20
2013,07,14,03,47,11.20
2013,07,14,03,48,11.20
2013,07,14,03,49,11.20
2013,07,14,03,50,11.20
2013,07,14,03,51,11.20
2013,07,14,03,52,11.20
2013,07,14,03,53,11.20
2013,07,14,03,54,11.20
2013,07,14,03,55,11.20
2013,07,14,03,56,11.20
2013,07,14,03,57,11.20
2013,07,14,03,58,11.20
2013,07,14,03,59,11.20
2013,07,14,04,00,11.20
2013,07,14,04,01,11.20
2013,07,14,04,02,11.10
2013,07,14,04,03,11.10
2013,07,14,04,04,11.10
2013,07,14,04,05,11.10
2013,07,14,04,06,11.10
2013,07,14,04,07,11.10
2013,07,14,04,08,11.00
2013,07,14,04,09,11.00
2013,07,14,04,10,11.00
2013,07,14,04,11,10.90
2013,07,14,04,12,10.90
2013,07,14,04,13,10.90
2013,07,14,04,14,10.90
2013,07,14,04,15,10.90
2013,07,14,04,16,10.90
2013,07,14,04,17,10.90
2013,07,14,04,18,10.90
2013,07,14,04,19,10.90
2013,07,14,04,20,10.90
2013,07,14,04,21,10.90
2013,07,14,04,22,10.90
2013,07,14,04,23,10.90
2013,07,14,04,24,10.90
2013,07,14,04,25,10.90
2013,07,14,04,26,10.90
2013,07,14,04,27,10.90
2013,07,14,04,28,10.90
2013,07,14,04,29,10.80
2013,07,14,04,30,10.80
2013,07,14,04,31,10.80
2013,07,14,04,32,10.80
2013,07,14,04,33,10.80
2013,07,14,04,34,10.80
2013,07,14,04,35,10.80
2013,07,14,04,36,10.80
2013,07,14,04,37,10.80
2013,07,14,04,38,10.80
2013,07,14,04,39,10.80
2013,07,14,04,40,10.80
2013,07,14,04,41,10.80
2013,07,14,04,42,10.80
2013,07,14,04,43,10.80
2013,07,14,04,44,10.80
2013,07,14,04,45,10.70
2013,07,14,04,46,10.70
2013,07,14,04,47,10.70
2013,07,14,04,48,10.70
2013,07,14,04,49,10.70
2013,07,14,04,50,10.70
2013,07,14,04,51,10.70
2013,07,14,04,52,10.70
2013,07,14,04,53,10.70
2013,07,14,04,54,10.70
2013,07,14,04,55,10.70
2013,07,14,04,56,10.70
2013,07,14,04,57,10.70
2013,07,14,04,58,10.60
2013,07,14,04,59,10.60
2013,07,14,05,00,10.60
2013,07,14,05,01,10.60
2013,07,14,05,02,10.60
2013,07,14,05,03,10.60
2013,07,14,05,04,10.60
2013,07,14,05,05,10.60
2013,07,14,05,06,10.60
2013,07,14,05,07,10.60
2013,07,14,05,08,10.60
2013,07,14,05,09,10.60
2013,07,14,05,10,10.60
2013,07,14,05,11,10.60
2013,07,14,05,12,10.60
2013,07,14,05,13,10.60
2013,07,14,05,14,10.60
2013,07,14,05,15,10.60
2013,07,14,05,16,10.60
2013,07,14,05,17,10.60
2013,07,14,05,18,10.60
2013,07,14,05,19,10.50
2013,07,14,05,20,10.50
2013,07,14,05,21,10.50
2013,07,14,05,22,10.50
2013,07,14,05,23,10.50
2013,07,14,05,24,10.50
2013,07,14,05,25,10.50
2013,07,14,05,26,10.50
2013,07,14,05,27,10.50
2013,07,14,05,28,10.50
2013,07,14,05,29,10.50
2013,07,14,05,30,10.50
2013,07,14,05,31,10.50
2013,07,14,05,32,10.50
2013,07,14,05,33,10.60
2013,07,14,05,34,10.60
2013,07,14,05,35,10.60
2013,07,14,05,36,10.60
2013,07,14,05,37,10.60
2013,07,14,05,38,10.60
2013,07,14,05,39,10.60
2013,07,14,05,40,10.60
2013,07,14,05,41,10.60
2013,07,14,05,42,10.60
2013,07,14,05,43,10.60
2013,07,14,05,44,10.60
2013,07,14,05,45,10.60
2013,07,14,05,46,10.60
2013,07,14,05,47,10.60
2013,07,14,05,48,10.60
2013,07,14,05,49,10.60
2013,07,14,05,50,10.60
2013,07,14,05,51,10.60
2013,07,14,05,52,10.60
2013,07,14,05,53,10.60
2013,07,14,05,54,10.60
2013,07,14,05,55,10.60
2013,07,14,05,56,10.60
2013,07,14,05,57,10.60
2013,07,14,05,58,10.60
2013,07,14,05,59,10.60
2013,07,14,06,00,10.60
2013,07,14,06,01,10.60
2013,07,14,06,02,10.60
2013,07,14,06,03,10.60
2013,07,14,06,04,10.70
2013,07,14,06,05,10.60
2013,07,14,06,06,10.60
2013,07,14,06,07,10.60
2013,07,14,06,08,10.60
2013,07,14,06,09,10.60
2013,07,14,06,10,10.60
2013,07,14,06,11,10.60
2013,07,14,06,12,10.60
2013,07,14,06,13,10.60
2013,07,14,06,14,10.60
2013,07,14,06,15,10.60
2013,07,14,06,16,10.60
2013,07,14,06,17,10.60
2013,07,14,06,18,10.60
2013,07,14,06,19,10.60
2013,07,14,06,20,10.70
2013,07,14,06,21,10.70
2013,07,14,06,22,10.70
2013,07,14,06,23,10.70
2013,07,14,06,24,10.70
2013,07,14,06,25,10.70
2013,07,14,06,26,10.70
2013,07,14,06,27,10.70
2013,07,14,06,28,10.70
2013,07,14,06,29,10.70
2013,07,14,06,30,10.70
2013,07,14,06,31,10.70
2013,07,14,06,32,10.70
2013,07,14,06,33,10.70
2013,07,14,06,34,10.70
2013,07,14,06,35,10.70
2013,07,14,06,36,10.70
2013,07,14,06,37,10.70
2013,07,14,06,38,10.80
2013,07,14,06,39,10.80
2013,07,14,06,40,10.80
2013,07,14,06,41,10.80
2013,07,14,06,42,10.80
2013,07,14,06,43,10.80
2013,07,14,06,44,10.90
2013,07,14,06,45,10.90
2013,07,14,06,46,11.00
2013,07,14,06,47,11.10
2013,07,14,06,48,11.20
2013,07,14,06,49,11.20
2013,07,14,06,50,11.30
2013,07,14,06,51,11.40
2013,07,14,06,52,11.50
2013,07,14,06,53,11.60
2013,07,14,06,54,11.60
2013,07,14,06,55,11.70
2013,07,14,06,56,11.80
2013,07,14,06,57,11.80
2013,07,14,06,58,11.90
2013,07,14,06,59,12.00
2013,07,14,07,00,12.10
2013,07,14,07,01,12.20
2013,07,14,07,02,12.30
2013,07,14,07,03,12.40
2013,07,14,07,04,12.50
2013,07,14,07,05,12.60
2013,07,14,07,06,12.70
2013,07,14,07,07,12.80
2013,07,14,07,08,12.90
2013,07,14,07,09,13.00
2013,07,14,07,10,13.10
2013,07,14,07,11,13.20
2013,07,14,07,12,13.30
2013,07,14,07,13,13.40
2013,07,14,07,14,13.50
2013,07,14,07,15,13.60
2013,07,14,07,16,13.70
2013,07,14,07,17,13.90
2013,07,14,07,18,14.00
2013,07,14,07,19,14.10
2013,07,14,07,20,14.20
2013,07,14,07,21,14.30
2013,07,14,07,22,14.30
2013,07,14,07,23,14.40
2013,07,14,07,24,14.60
2013,07,14,07,25,14.70
2013,07,14,07,26,14.70
2013,07,14,07,27,14.80
2013,07,14,07,28,14.90
2013,07,14,07,29,15.00
2013,07,14,07,30,15.00
2013,07,14,07,31,15.00
2013,07,14,07,32,15.10
2013,07,14,07,33,15.20
2013,07,14,07,34,15.30
2013,07,14,07,35,15.40
2013,07,14,07,36,15.50
2013,07,14,07,37,15.60
2013,07,14,07,38,15.70
2013,07,14,07,39,15.80
2013,07,14,07,40,15.90
2013,07,14,07,41,16.00
2013,07,14,07,42,16.10
2013,07,14,07,43,16.20
2013,07,14,07,44,16.30
2013,07,14,07,45,16.30
2013,07,14,07,46,16.40
2013,07,14,07,47,16.50
2013,07,14,07,48,16.60
2013,07,14,07,49,16.70
2013,07,14,07,50,16.80
2013,07,14,07,51,16.90
2013,07,14,07,52,17.00
2013,07,14,07,53,17.10
2013,07,14,07,54,17.20
2013,07,14,07,55,17.30
2013,07,14,07,56,17.40
2013,07,14,07,57,17.40
2013,07,14,07,58,17.50
2013,07,14,07,59,17.60
2013,07,14,08,00,17.60
2013,07,14,08,01,17.70
2013,07,14,08,02,17.70
2013,07,14,08,03,17.80
2013,07,14,08,04,17.80
2013,07,14,08,05,17.90
2013,07,14,08,06,18.00
2013,07,14,08,07,18.10
2013,07,14,08,08,18.10
2013,07,14,08,09,18.10
2013,07,14,08,10,18.20
2013,07,14,08,11,18.20
2013,07,14,08,12,18.30
2013,07,14,08,13,18.30
2013,07,14,08,14,18.40
2013,07,14,08,15,18.40
2013,07,14,08,16,18.40
2013,07,14,08,17,18.40
2013,07,14,08,18,18.50
2013,07,14,08,19,18.60
2013,07,14,08,20,18.60
2013,07,14,08,21,18.60
2013,07,14,08,22,18.60
2013,07,14,08,23,18.60
2013,07,14,08,24,18.70
2013,07,14,08,25,18.70
2013,07,14,08,26,18.70
2013,07,14,08,27,18.70
2013,07,14,08,28,18.70
2013,07,14,08,29,18.70
2013,07,14,08,30,18.80
2013,07,14,08,31,18.90
2013,07,14,08,32,18.90
2013,07,14,08,33,19.00
2013,07,14,08,34,19.10
2013,07,14,08,35,19.10
2013,07,14,08,36,19.10
2013,07,14,08,37,19.20
2013,07,14,08,38,19.20
2013,07,14,08,39,19.30
2013,07,14,08,40,19.30
2013,07,14,08,41,19.30
2013,07,14,08,42,19.30
2013,07,14,08,43,19.30
2013,07,14,08,44,19.30
2013,07,14,08,45,19.30
2013,07,14,08,46,19.30
2013,07,14,08,47,19.30
2013,07,14,08,48,19.30
2013,07,14,08,49,19.30
2013,07,14,08,50,19.40
2013,07,14,08,51,19.40
2013,07,14,08,52,19.50
2013,07,14,08,53,19.60
2013,07,14,08,54,19.50
2013,07,14,08,55,19.50
2013,07,14,08,56,19.40
2013,07,14,08,57,19.40
2013,07,14,08,58,19.50
2013,07,14,08,59,19.40
2013,07,14,09,00,19.50
2013,07,14,09,01,19.60
2013,07,14,09,02,19.60
2013,07,14,09,03,19.60
2013,07,14,09,04,19.70
2013,07,14,09,05,19.70
2013,07,14,09,06,19.70
2013,07,14,09,07,19.70
2013,07,14,09,08,19.60
2013,07,14,09,09,19.60
2013,07,14,09,10,19.60
2013,07,14,09,11,19.60
2013,07,14,09,12,19.60
2013,07,14,09,13,19.60
2013,07,14,09,14,19.70
2013,07,14,09,15,19.70
2013,07,14,09,16,19.80
2013,07,14,09,17,19.80
2013,07,14,09,18,19.80
2013,07,14,09,19,19.80
2013,07,14,09,20,19.90
2013,07,14,09,21,19.90
2013,07,14,09,22,20.00
2013,07,14,09,23,20.00
2013,07,14,09,24,20.10
2013,07,14,09,25,20.10
2013,07,14,09,26,20.10
2013,07,14,09,27,20.20
2013,07,14,09,28,20.20
2013,07,14,09,29,20.20
2013,07,14,09,30,20.20
2013,07,14,09,31,20.20
2013,07,14,09,32,20.30
2013,07,14,09,33,20.30
2013,07,14,09,34,20.40
2013,07,14,09,35,20.40
2013,07,14,09,36,20.50
2013,07,14,09,37,20.50
2013,07,14,09,38,20.50
2013,07,14,09,39,20.60
2013,07,14,09,40,20.60
2013,07,14,09,41,20.60
2013,07,14,09,42,20.60
2013,07,14,09,43,20.60
2013,07,14,09,44,20.50
2013,07,14,09,45,20.40
2013,07,14,09,46,20.40
2013,07,14,09,47,20.40
2013,07,14,09,48,20.40
2013,07,14,09,49,20.40
2013,07,14,09,50,20.50
2013,07,14,09,51,20.60
2013,07,14,09,52,20.60
2013,07,14,09,53,20.60
2013,07,14,09,54,20.70
2013,07,14,09,55,20.60
2013,07,14,09,56,20.60
2013,07,14,09,57,20.60
2013,07,14,09,58,20.60
2013,07,14,09,59,20.70
2013,07,14,10,00,20.70
2013,07,14,10,01,20.70
2013,07,14,10,02,20.80
2013,07,14,10,03,20.80
2013,07,14,10,04,20.80
2013,07,14,10,05,20.90
2013,07,14,10,06,20.90
2013,07,14,10,07,20.80
2013,07,14,10,08,20.80
2013,07,14,10,09,20.70
2013,07,14,10,10,20.80
2013,07,14,10,11,20.70
2013,07,14,10,12,20.70
2013,07,14,10,13,20.70
2013,07,14,10,14,20.70
2013,07,14,10,15,20.70
2013,07,14,10,16,20.70
2013,07,14,10,17,20.70
2013,07,14,10,18,20.70
2013,07,14,10,19,20.70
2013,07,14,10,20,20.70
2013,07,14,10,21,20.70
2013,07,14,10,22,20.60
2013,07,14,10,23,20.60
2013,07,14,10,24,20.60
2013,07,14,10,25,20.70
2013,07,14,10,26,20.80
2013,07,14,10,27,20.90
2013,07,14,10,28,21.00
2013,07,14,10,29,20.90
2013,07,14,10,30,20.90
2013,07,14,10,31,20.90
2013,07,14,10,32,20.90
2013,07,14,10,33,20.90
2013,07,14,10,34,20.90
2013,07,14,10,35,20.80
2013,07,14,10,36,20.80
2013,07,14,10,37,20.90
2013,07,14,10,38,20.90
2013,07,14,10,39,20.80
2013,07,14,10,40,20.90
2013,07,14,10,41,20.90
2013,07,14,10,42,20.90
2013,07,14,10,43,20.90
2013,07,14,10,44,20.80
2013,07,14,10,45,20.80
2013,07,14,10,46,20.80
2013,07,14,10,47,20.80
2013,07,14,10,48,20.80
2013,07,14,10,49,20.80
2013,07,14,10,50,20.80
2013,07,14,10,51,20.90
2013,07,14,10,52,20.90
2013,07,14,10,53,20.90
2013,07,14,10,54,20.90
2013,07,14,10,55,21.00
2013,07,14,10,56,21.00
2013,07,14,10,57,21.00
2013,07,14,10,58,21.00
2013,07,14,10,59,21.00
2013,07,14,11,00,21.10
2013,07,14,11,01,21.10
2013,07,14,11,02,21.10
2013,07,14,11,03,21.10
2013,07,14,11,04,21.10
2013,07,14,11,05,21.10
2013,07,14,11,06,21.20
2013,07,14,11,07,21.30
2013,07,14,11,08,21.20
2013,07,14,11,09,21.20
2013,07,14,11,10,21.20
2013,07,14,11,11,21.20
2013,07,14,11,12,21.20
2013,07,14,11,13,21.20
2013,07,14,11,14,21.20
2013,07,14,11,15,21.20
2013,07,14,11,16,21.20
2013,07,14,11,17,21.30
2013,07,14,11,18,21.30
2013,07,14,11,19,21.30
2013,07,14,11,20,21.20
2013,07,14,11,21,21.20
2013,07,14,11,22,21.20
2013,07,14,11,23,21.20
2013,07,14,11,24,21.20
2013,07,14,11,25,21.30
2013,07,14,11,26,21.20
2013,07,14,11,27,21.10
2013,07,14,11,28,21.10
2013,07,14,11,29,21.10
2013,07,14,11,30,21.10
2013,07,14,11,31,21.20
2013,07,14,11,32,21.30
2013,07,14,11,33,21.30
2013,07,14,11,34,21.30
2013,07,14,11,35,21.30
2013,07,14,11,36,21.30
2013,07,14,11,37,21.30
2013,07,14,11,38,21.30
2013,07,14,11,39,21.30
2013,07,14,11,40,21.30
2013,07,14,11,41,21.30
2013,07,14,11,42,21.30
2013,07,14,11,43,21.40
2013,07,14,11,44,21.50
2013,07,14,11,45,21.50
2013,07,14,11,46,21.30
2013,07,14,11,47,21.30
2013,07,14,11,48,21.30
2013,07,14,11,49,21.40
2013,07,14,11,50,21.50
2013,07,14,11,51,21.60
2013,07,14,11,52,21.60
2013,07,14,11,53,21.70
2013,07,14,11,54,21.90
2013,07,14,11,55,21.90
2013,07,14,11,56,22.00
2013,07,14,11,57,22.10
2013,07,14,11,58,22.10
2013,07,14,11,59,22.20
2013,07,14,12,00,22.30
2013,07,14,12,01,22.30
2013,07,14,12,02,22.30
2013,07,14,12,03,22.40
2013,07,14,12,04,22.30
2013,07,14,12,05,22.30
2013,07,14,12,06,22.30
2013,07,14,12,07,22.20
2013,07,14,12,08,22.20
2013,07,14,12,09,22.30
2013,07,14,12,10,22.40
2013,07,14,12,11,22.40
2013,07,14,12,12,22.40
2013,07,14,12,13,22.40
2013,07,14,12,14,22.50
2013,07,14,12,15,22.50
2013,07,14,12,16,22.50
2013,07,14,12,17,22.50
2013,07,14,12,18,22.40
2013,07,14,12,19,22.40
2013,07,14,12,20,22.40
2013,07,14,12,21,22.40
2013,07,14,12,22,22.40
2013,07,14,12,23,22.50
2013,07,14,12,24,22.70
2013,07,14,12,25,22.70
2013,07,14,12,26,22.80
2013,07,14,12,27,22.90
2013,07,14,12,28,22.90
2013,07,14,12,29,22.90
2013,07,14,12,30,23.00
2013,07,14,12,31,23.00
2013,07,14,12,32,23.10
2013,07,14,12,33,23.20
2013,07,14,12,34,23.30
2013,07,14,12,35,23.30
2013,07,14,12,36,23.30
2013,07,14,12,37,23.40
2013,07,14,12,38,23.40
2013,07,14,12,39,23.50
2013,07,14,12,40,23.60
2013,07,14,12,41,23.60
2013,07,14,12,42,23.50
2013,07,14,12,43,23.40
2013,07,14,12,44,23.30
2013,07,14,12,45,23.20
2013,07,14,12,46,23.20
2013,07,14,12,47,23.20
2013,07,14,12,48,23.30
2013,07,14,12,49,23.20
2013,07,14,12,50,23.10
2013,07,14,12,51,23.00
2013,07,14,12,52,22.90
2013,07,14,12,53,22.90
2013,07,14,12,54,22.80
2013,07,14,12,55,22.90
2013,07,14,12,56,23.00
2013,07,14,12,57,23.00
2013,07,14,12,58,23.00
2013,07,14,12,59,22.90
2013,07,14,13,00,22.90
2013,07,14,13,01,23.00
2013,07,14,13,02,23.10
2013,07,14,13,03,23.20
2013,07,14,13,04,23.30
2013,07,14,13,05,23.40
2013,07,14,13,06,23.40
2013,07,14,13,07,23.30
2013,07,14,13,08,23.20
2013,07,14,13,09,23.20
2013,07,14,13,10,23.10
2013,07,14,13,11,23.10
2013,07,14,13,12,23.00
2013,07,14,13,13,23.00
2013,07,14,13,14,23.10
2013,07,14,13,15,23.20
2013,07,14,13,16,23.30
2013,07,14,13,17,23.30
2013,07,14,13,18,23.40
2013,07,14,13,19,23.30
2013,07,14,13,20,23.30
2013,07,14,13,21,23.40
2013,07,14,13,22,23.40
2013,07,14,13,23,23.50
2013,07,14,13,24,23.60
2013,07,14,13,25,23.50
2013,07,14,13,26,23.50
2013,07,14,13,27,23.60
2013,07,14,13,28,23.70
2013,07,14,13,29,23.70
2013,07,14,13,30,23.80
2013,07,14,13,31,23.80
2013,07,14,13,32,23.70
2013,07,14,13,33,23.80
2013,07,14,13,34,23.80
2013,07,14,13,35,23.80
2013,07,14,13,36,23.80
2013,07,14,13,37,23.90
2013,07,14,13,38,24.00
2013,07,14,13,39,24.30
2013,07,14,13,40,24.40
2013,07,14,13,41,24.60
2013,07,14,13,42,24.70
2013,07,14,13,43,24.80
2013,07,14,13,44,24.80
2013,07,14,13,45,24.90
2013,07,14,13,46,25.00
2013,07,14,13,47,25.10
2013,07,14,13,48,25.10
2013,07,14,13,49,25.20
2013,07,14,13,50,25.30
2013,07,14,13,51,25.30
2013,07,14,13,52,25.30
2013,07,14,13,53,25.30
2013,07,14,13,54,25.30
2013,07,14,13,55,25.30
2013,07,14,13,56,25.40
2013,07,14,13,57,25.40
2013,07,14,13,58,25.40
2013,07,14,13,59,25.40
2013,07,14,14,00,25.30
2013,07,14,14,01,25.20
2013,07,14,14,02,25.20
2013,07,14,14,03,25.10
2013,07,14,14,04,25.20
2013,07,14,14,05,25.20
2013,07,14,14,06,25.20
2013,07,14,14,07,25.20
2013,07,14,14,08,25.20
2013,07,14,14,09,25.10
2013,07,14,14,10,25.00
2013,07,14,14,11,25.00
2013,07,14,14,12,25.00
2013,07,14,14,13,25.00
2013,07,14,14,14,25.10
2013,07,14,14,15,25.10
2013,07,14,14,16,25.20
2013,07,14,14,17,25.20
2013,07,14,14,18,25.20
2013,07,14,14,19,25.30
2013,07,14,14,20,25.40
2013,07,14,14,21,25.50
2013,07,14,14,22,25.60
2013,07,14,14,23,25.60
2013,07,14,14,24,25.60
2013,07,14,14,25,25.60
2013,07,14,14,26,25.60
2013,07,14,14,27,25.60
2013,07,14,14,28,25.50
2013,07,14,14,29,25.50
2013,07,14,14,30,25.50
2013,07,14,14,31,25.40
2013,07,14,14,32,25.30
2013,07,14,14,33,25.30
2013,07,14,14,34,25.20
2013,07,14,14,35,25.20
2013,07,14,14,36,25.30
2013,07,14,14,37,25.30
2013,07,14,14,38,25.20
2013,07,14,14,39,25.20
2013,07,14,14,40,25.20
2013,07,14,14,41,25.20
2013,07,14,14,42,25.10
2013,07,14,14,43,25.00
2013,07,14,14,44,25.00
2013,07,14,14,45,25.00
2013,07,14,14,46,25.00
2013,07,14,14,47,25.10
2013,07,14,14,48,25.20
2013,07,14,14,49,25.20
2013,07,14,14,50,25.20
2013,07,14,14,51,25.10
2013,07,14,14,52,25.00
2013,07,14,14,53,24.90
2013,07,14,14,54,24.90
2013,07,14,14,55,24.80
2013,07,14,14,56,24.90
2013,07,14,14,57,24.90
2013,07,14,14,58,24.90
2013,07,14,14,59,24.90
2013,07,14,15,00,24.80
2013,07,14,15,01,24.80
2013,07,14,15,02,24.90
2013,07,14,15,03,24.90
2013,07,14,15,04,24.90
2013,07,14,15,05,25.00
2013,07,14,15,06,25.10
2013,07,14,15,07,25.10
2013,07,14,15,08,25.10
2013,07,14,15,09,25.10
2013,07,14,15,10,25.20
2013,07,14,15,11,25.30
2013,07,14,15,12,25.40
2013,07,14,15,13,25.40
2013,07,14,15,14,25.40
2013,07,14,15,15,25.30
2013,07,14,15,16,25.40
2013,07,14,15,17,25.30
2013,07,14,15,18,25.30
2013,07,14,15,19,25.30
2013,07,14,15,20,25.30
2013,07,14,15,21,25.40
2013,07,14,15,22,25.50
2013,07,14,15,23,25.50
2013,07,14,15,24,25.50
2013,07,14,15,25,25.50
2013,07,14,15,26,25.40
2013,07,14,15,27,25.40
2013,07,14,15,28,25.40
2013,07,14,15,29,25.30
2013,07,14,15,30,25.30
2013,07,14,15,31,25.30
2013,07,14,15,32,25.30
2013,07,14,15,33,25.30
2013,07,14,15,34,25.40
2013,07,14,15,35,25.40
2013,07,14,15,36,25.40
2013,07,14,15,37,25.40
2013,07,14,15,38,25.40
2013,07,14,15,39,25.40
2013,07,14,15,40,25.40
2013,07,14,15,41,25.40
2013,07,14,15,42,25.50
2013,07,14,15,43,25.60
2013,07,14,15,44,25.50
2013,07,14,15,45,25.60
2013,07,14,15,46,25.50
2013,07,14,15,47,25.50
2013,07,14,15,48,25.40
2013,07,14,15,49,25.40
2013,07,14,15,50,25.40
2013,07,14,15,51,25.40
2013,07,14,15,52,25.40
2013,07,14,15,53,25.30
2013,07,14,15,54,25.30
2013,07,14,15,55,25.20
2013,07,14,15,56,25.20
2013,07,14,15,57,25.20
2013,07,14,15,58,25.30
2013,07,14,15,59,25.30
2013,07,14,16,00,25.30
2013,07,14,16,01,25.30
2013,07,14,16,02,25.40
2013,07,14,16,03,25.50
2013,07,14,16,04,25.60
2013,07,14,16,05,25.60
2013,07,14,16,06,25.60
2013,07,14,16,07,25.70
2013,07,14,16,08,25.80
2013,07,14,16,09,25.70
2013,07,14,16,10,25.70
2013,07,14,16,11,25.60
2013,07,14,16,12,25.50
2013,07,14,16,13,25.40
2013,07,14,16,14,25.50
2013,07,14,16,15,25.50
2013,07,14,16,16,25.50
2013,07,14,16,17,25.60
2013,07,14,16,18,25.60
2013,07,14,16,19,25.70
2013,07,14,16,20,25.70
2013,07,14,16,21,25.80
2013,07,14,16,22,25.80
2013,07,14,16,23,25.70
2013,07,14,16,24,25.60
2013,07,14,16,25,25.60
2013,07,14,16,26,25.60
2013,07,14,16,27,25.60
2013,07,14,16,28,25.60
2013,07,14,16,29,25.60
2013,07,14,16,30,25.70
2013,07,14,16,31,25.70
2013,07,14,16,32,25.70
2013,07,14,16,33,25.60
2013,07,14,16,34,25.60
2013,07,14,16,35,25.40
2013,07,14,16,36,25.40
2013,07,14,16,37,25.40
2013,07,14,16,38,25.40
2013,07,14,16,39,25.30
2013,07,14,16,40,25.30
2013,07,14,16,41,25.20
2013,07,14,16,42,25.20
2013,07,14,16,43,25.20
2013,07,14,16,44,25.20
2013,07,14,16,45,25.20
2013,07,14,16,46,25.20
2013,07,14,16,47,25.30
2013,07,14,16,48,25.20
2013,07,14,16,49,25.20
2013,07,14,16,50,25.20
2013,07,14,16,51,25.10
2013,07,14,16,52,25.10
2013,07,14,16,53,25.10
2013,07,14,16,54,25.20
2013,07,14,16,55,25.20
2013,07,14,16,56,25.20
2013,07,14,16,57,25.20
2013,07,14,16,58,25.20
2013,07,14,16,59,25.20
2013,07,14,17,00,25.10
2013,07,14,17,01,25.00
2013,07,14,17,02,25.00
2013,07,14,17,03,25.00
2013,07,14,17,04,25.00
2013,07,14,17,05,25.10
2013,07,14,17,06,25.10
2013,07,14,17,07,25.10
2013,07,14,17,08,25.20
2013,07,14,17,09,25.20
2013,07,14,17,10,25.30
2013,07,14,17,11,25.20
2013,07,14,17,12,25.20
2013,07,14,17,13,25.20
2013,07,14,17,14,25.20
2013,07,14,17,15,25.20
2013,07,14,17,16,25.20
2013,07,14,17,17,25.30
2013,07,14,17,18,25.30
2013,07,14,17,19,25.30